Location: Asheville, NC
(35.6000°N, 82.5500°W)
Time: 20:25:13
(UTC-04:00)

Vanguard 1 Rocket - Pass Details

Date: 12 March 2018
Orbit: 653 x 4224 km, 34.3° (Epoch: 24 June)

Event Time Altitude Azimuth Distance (km) Brightness Sun altitude
Rises 02:00:27 0° 285° (WNW) 6,422 11.8 -57.4°
Reaches altitude 10° 02:04:16 10° 280° (W) 5,803 11.4 -57.2°
Enters shadow 02:07:04 18° 275° (W) 5,416 11.2 -57.1°
Exits shadow 02:46:36 11° 149° (SSE) 7,182 11.7 -54.2°
Drops below altitude 10° 02:47:04 10° 148° (SSE) 7,246 11.7 -54.2°
Sets 02:52:38 0° 143° (SE) 8,030 12.1 -53.6°
